Location: Hamburg
(53.5511°N, 9.9937°E)
Time: 16:39:24
(UTC+02:00)

ISS - Pass Details

Date: 19 March 2026
Orbit: 416 x 425 km, 51.6° (Epoch: 19 April)

Event Time Altitude Azimuth Distance (km) Brightness Sun altitude
Rises 19:49:17 0° 263° (W) 2,388 1.4 -12.2°
Reaches altitude 10° 19:51:25 10° 260° (W) 1,521 0.1 -12.5°
Maximum altitude 19:54:48 64° 179° (S) 477 -3.6 -13.0°
Enters shadow 19:56:35 25° 104° (ESE) 901 -2.7 -13.2°
